TimePDT,TemperatureF,Dew PointF,Humidity,Sea Level PressureIn,VisibilityMPH,Wind Direction,Wind SpeedMPH,Gust SpeedMPH,PrecipitationIn,Events,Conditions,WindDirDegrees,DateUTC
12:53 AM,52.0,5.0,15,30.00,10.0,NNE,8.1,-,N/A,,Clear,30,2012-10-07 07:53:00
1:53 AM,51.1,3.9,15,30.01,10.0,NNE,12.7,-,N/A,,Clear,30,2012-10-07 08:53:00
2:53 AM,50.0,3.9,15,30.00,10.0,NNE,8.1,-,N/A,,Clear,20,2012-10-07 09:53:00
3:53 AM,48.9,3.9,16,30.01,10.0,Variable,3.5,-,N/A,,Clear,0,2012-10-07 10:53:00
4:53 AM,45.0,6.1,20,30.03,10.0,North,10.4,-,N/A,,Clear,10,2012-10-07 11:53:00
5:53 AM,45.0,5.0,19,30.04,10.0,Calm,Calm,-,N/A,,Clear,0,2012-10-07 12:53:00
6:53 AM,44.1,5.0,20,30.07,10.0,NNE,9.2,-,N/A,,Clear,20,2012-10-07 13:53:00
7:53 AM,46.9,5.0,18,30.09,10.0,North,10.4,-,N/A,,Clear,10,2012-10-07 14:53:00
8:53 AM,51.1,6.1,16,30.10,10.0,North,6.9,-,N/A,,Clear,360,2012-10-07 15:53:00
9:53 AM,55.0,8.1,15,30.09,10.0,NNE,10.4,-,N/A,,Clear,30,2012-10-07 16:53:00
10:53 AM,60.1,9.0,13,30.07,10.0,NNE,10.4,-,N/A,,Clear,20,2012-10-07 17:53:00
11:53 AM,64.0,8.1,11,30.04,10.0,Variable,3.5,-,N/A,,Clear,0,2012-10-07 18:53:00
12:53 PM,66.0,6.1,9,30.02,10.0,Variable,3.5,-,N/A,,Clear,0,2012-10-07 19:53:00
1:53 PM,68.0,7.0,9,29.99,10.0,Variable,4.6,-,N/A,,Clear,0,2012-10-07 20:53:00
2:53 PM,72.0,6.1,8,29.96,10.0,NE,5.8,-,N/A,,Clear,40,2012-10-07 21:53:00
3:53 PM,72.0,8.1,8,29.93,10.0,NE,8.1,-,N/A,,Clear,50,2012-10-07 22:53:00
4:53 PM,73.0,8.1,8,29.92,10.0,Variable,4.6,-,N/A,,Clear,0,2012-10-07 23:53:00
5:53 PM,71.1,6.1,8,29.91,10.0,NE,5.8,-,N/A,,Clear,50,2012-10-08 00:53:00
6:53 PM,61.0,12.9,15,29.94,10.0,Calm,Calm,-,N/A,,Clear,0,2012-10-08 01:53:00
7:53 PM,57.9,5.0,12,29.94,10.0,NNE,8.1,-,N/A,,Clear,20,2012-10-08 02:53:00
8:53 PM,53.1,3.0,13,29.96,8.0,Calm,Calm,-,N/A,,Clear,0,2012-10-08 03:53:00
9:53 PM,46.0,8.1,21,29.96,10.0,South,3.5,-,N/A,,Clear,190,2012-10-08 04:53:00
10:53 PM,39.9,12.0,32,29.97,10.0,SSE,4.6,-,N/A,,Clear,160,2012-10-08 05:53:00
11:53 PM,41.0,10.0,28,29.96,10.0,WSW,6.9,-,N/A,,Clear,240,2012-10-08 06:53:00